Regional Weather Roundup
Issued by NWS New Orleans/Baton Rouge, LA

Home | Current Version | Previous Version | Graphics & Text | Print | Product List | Glossary On
Versions: 1 2 3 4 5 6 7 8 9 10 11 12 13 14 15 16 17 18 19 20 21 22 23 24 25 26 27 28 29 30 31 32 33 34 35 36 37 38 39 40 41 42 43 44 45 46 47 48 49 50
829
ASUS44 KLIX 291601
RWRLIX
NEW ORLEANS REGIONAL WEATHER ROUNDUP
NATIONAL WEATHER SERVICE NEW ORLEANS LA
1100 AM CDT FRI AUG 29 2014

NOTE: "FAIR" INDICATES FEW OR NO CLOUDS BELOW 12,000 FEET WITH NO
      SIGNIFICANT WEATHER AND/OR OBSTRUCTIONS TO VISIBILITY.
      SKY/WX - SKY CONDITION AND SIGNIFICANT WEATHER.
      TMP - AIR TEMPERATURE.     DP    - DEWPOINT TEMPERATURE.
      RH  - RELATIVE HUMIDITY.   PRES  - PRESSURE.
      HI  - HEAT INDEX.          WCI   - WIND CHILL INDEX.

*  THESE STATIONS ARE NOT NWS OR FAA STATIONS AND ARE NOT UNDER
   NWS QUALITY CONTROL.

LAZ038-040-048-061>063-065>067-069-291700-
SOUTHEAST LOUISIANA

CITY           SKY/WX    TMP DP  RH WIND       PRES   REMARKS
N.O. AUDUBON     N/A    N/A N/A N/A MISG        N/A
N.O. INTL ARPT PTSUNNY   88  75  65 E8        29.97R HX  97
N.O. LAKEFRONT PTSUNNY   87  74  64 E15       29.97S HX  95
N.O. DOWNTOWN*   N/A     88  72  58 SE10      29.98R
SLIDELL        PTSUNNY   87  74  64 E10       29.97F HX  95
BATON ROUGE    PTSUNNY   86  74  67 SE6       29.96F
BOOTHVILLE     CLOUDY    77  74  90 S17G25    29.96F
BELLE CHASSE   CLOUDY    88  74  63 E13       29.97R HX  96
BOGALUSA*        N/A     90  73  57 E9        30.01F HX  97
GALLIANO*      NOT AVBL
NEW ROADS*       N/A     85  74  68 SE5       29.97S
GONZALES*        N/A     86  77  73 CALM      29.96S HX  96
HAMMOND*       NOT AVBL
HOUMA*         SHOWER    75  70  83 S12       29.99R
PORT FOURCHON* PTSUNNY   79  73  83 SE9G26    30.02R HAZE

$$

MSZ070-080>082-291700-
SOUTHERN MISSISSIPPI

CITY           SKY/WX    TMP DP  RH WIND       PRES   REMARKS
MCCOMB         SUNNY     86  70  58 E7        30.00S
GULFPORT       LGT RAIN  82  77  84 SE12      29.98F
BILOXI         MOSUNNY   89  74  62 SE9       29.99F HX  97
PASCAGOULA     PTSUNNY   87  73  62 SE14      29.99F
STENNIS ARPT*  MOSUNNY  N/A N/A N/A E9G18     29.99F

$$

COASTAL OBSERVATIONS
LAKE AND NEARSHORE STATIONS

STATION/POSITION TIME  TEMP    WIND        PRES    WAVE
                       AIR SEA DIR/SP/G            HT/PER
                 (UTC) (F)     (DEG/KT/KT) (MB)    (FT/S)
PASCAGOULA       1500   87     120/  9/ 13 1015.3
WAVELAND YACHT   1500   84     110/ 12/ 17 1014.9
GRAND ISLE       1500   84 84  100/  9/ 13 1014.9
SOUTHWEST PASS   1500   79 89   90/  3/  4 1014.8
NEW CANAL        1500   87 84  100/  4/ 11 1015.3
SHELL BEACH      1500   85 81   80/ 13/ 15 1014.3

OFFSHORE STATIONS

STATION/POSITION TIME  TEMP    WIND        PRES    WAVE
                       AIR SEA DIR/SP/G            HT/PER
                 (UTC) (F)     (DEG/KT/KT) (MB)    (FT/S)
64 S DAUPHIN ISL 1600   85     120/  6       N/A

$$




USA.gov is the U.S. government's official web portal to all federal, state and local government web resources and services.